Location: Brachbach
(49.1847°N, 9.7240°E)
Time: 14:35:25
(UTC+00:00)

Nimbus 7 Rocket - Pass Details

Date: 09 August 2024
Orbit: 921 x 965 km, 99.4° (Epoch: 14 September)

Event Time Altitude Azimuth Distance (km) Brightness Sun altitude
Rises 01:23:53 0° 10° (N) 3,603 8.7 -20.1°
Reaches altitude 10° 01:26:31 10° 2° (N) 2,649 7.7 -19.9°
Maximum altitude 01:31:45 35° 299° (WNW) 1,466 5.4 -19.4°
Enters shadow 01:34:26 23° 254° (WSW) 1,842 5.5 -19.2°
